This demonstration page uses our WeatherBlox Daily Observations layout. Learn more.

Left ArrowRight Arrow

38.80484, -77.04692

Hourly Observations for September 5, 2020

Temp ( °F °C ) Dew Point ( °F °C ) Humidity (%) Winds ( mph kmh ) Pressure ( in mb ) Visibility ( mi km ) Precip ( " mm )
12:52 am 00:52 Mostly Clear 72 22.2 58 14.4 61 61 NNW 8 13 30.09 1019 10 16 N/A
1:52 am 01:52 Mostly Cloudy 70 21.1 58 14.4 66 66 NNW 6 9 30.12 1020 10 16 N/A
2:52 am 02:52 Mostly Cloudy 69 20.6 57 13.9 66 66 NNW 7 11 30.14 1021 10 16 N/A
3:52 am 03:52 Mostly Cloudy 68 20 56 13.3 65 65 NNW 9 15 30.16 1021 10 16 N/A
4:52 am 04:52 Partly Cloudy 66 18.9 57 13.9 73 73 N 6 9 30.17 1022 10 16 N/A
5:52 am 05:52 Mostly Clear 64 17.8 56 13.3 75 75 NNW 6 9 30.19 1022 10 16 N/A
6:52 am 06:52 Mostly Sunny 65 18.3 57 13.9 76 76 NNW 5 7 30.21 1023 10 16 N/A
7:52 am 07:52 Partly Cloudy 68 20 56 13.3 65 65 NNW 10 17 30.23 1024 10 16 N/A
8:52 am 08:52 Partly Cloudy 71 21.7 54 12.2 55 55 N 8 13 30.25 1024 10 16 N/A
9:52 am 09:52 Partly Cloudy 74 23.3 54 12.2 50 50 N 7 11 30.26 1025 10 16 N/A
10:52 am 10:52 Mostly Cloudy 76 24.4 53 11.7 45 45 NNE 10 17 30.27 1025 10 16 N/A
11:52 am 11:52 Mostly Cloudy 78 25.6 51 10.6 39 39 NE 5 7 30.26 1025 10 16 N/A
12:52 pm 12:52 Mostly Cloudy 79 26.1 49 9.4 35 35 N N/A 30.24 1024 10 16 N/A
1:52 pm 13:52 Mostly Cloudy 81 27.2 52 11.1 37 37 N N/A 30.23 1024 10 16 N/A
2:52 pm 14:52 Partly Cloudy 81 27.2 52 11.1 37 37 N 3 6 30.22 1023 10 16 N/A
3:52 pm 15:52 Partly Cloudy 81 27.2 55 12.8 41 41 NW 8 13 30.21 1023 10 16 N/A
4:52 pm 16:52 Partly Cloudy 80 26.7 50 10 35 35 NW 9 15 30.20 1023 10 16 N/A
5:52 pm 17:52 Mostly Sunny 79 26.1 52 11.1 39 39 N 9 15 30.21 1023 10 16 N/A
6:52 pm 18:52 Mostly Sunny 78 25.6 49 9.4 36 36 N 3 6 30.20 1023 10 16 N/A
7:52 pm 19:52 Mostly Clear 76 24.4 49 9.4 39 39 NNW 5 7 30.21 1023 10 16 N/A
8:52 pm 20:52 Clear 72 22.2 56 13.3 57 57 SSE 9 15 30.22 1023 10 16 N/A
9:52 pm 21:52 Clear 71 21.7 56 13.3 59 59 S 10 17 30.22 1024 10 16 N/A
10:52 pm 22:52 Clear 70 21.1 57 13.9 64 64 SSW 7 11 30.22 1024 10 16 N/A
11:52 pm 23:52 Clear 69 20.6 58 14.4 68 68 SW 5 7 30.22 1023 10 16 N/A

Powered by AerisWeather